Time,TemperatureF,DewpointF,PressureIn,WindDirection,WindDirectionDegrees,WindSpeedMPH,WindSpeedGustMPH,Humidity,HourlyPrecipIn,Conditions,Clouds,dailyrainin,SoftwareType,DateUTC
2013-10-26 00:00:00,37.2,23.4,30.36,North,0,0.0,0.0,57,0.00,CLR,,0.00,WeatherDisplay:10.37,2013-10-26 04:00:00,
2013-10-26 00:05:00,37.0,23.6,30.36,North,0,0.0,0.0,58,0.00,CLR,,0.00,WeatherDisplay:10.37,2013-10-26 04:05:00,
2013-10-26 00:10:00,36.7,23.3,30.36,North,0,0.0,0.0,58,0.00,CLR,,0.00,WeatherDisplay:10.37,2013-10-26 04:10:00,
2013-10-26 00:20:00,36.5,23.5,30.36,North,0,0.0,0.0,59,0.00,CLR,,0.00,WeatherDisplay:10.37,2013-10-26 04:20:00,
2013-10-26 00:25:00,36.3,23.8,30.35,North,0,0.0,0.0,60,0.00,CLR,,0.00,WeatherDisplay:10.37,2013-10-26 04:25:00,
2013-10-26 00:30:00,36.1,23.6,30.33,North,0,0.0,0.0,60,0.00,CLR,,0.00,WeatherDisplay:10.37,2013-10-26 04:30:00,
2013-10-26 00:35:00,36.0,23.4,30.33,North,0,0.0,0.0,60,0.00,CLR,,0.00,WeatherDisplay:10.37,2013-10-26 04:35:00,
2013-10-26 00:40:00,35.8,23.6,30.33,North,0,0.0,0.0,61,0.00,CLR,,0.00,WeatherDisplay:10.37,2013-10-26 04:40:00,
2013-10-26 00:45:00,35.8,23.6,30.33,North,0,0.0,0.0,61,0.00,CLR,,0.00,WeatherDisplay:10.37,2013-10-26 04:45:00,
2013-10-26 00:50:00,35.6,23.5,30.33,North,0,0.0,0.0,61,0.00,CLR,,0.00,WeatherDisplay:10.37,2013-10-26 04:50:00,
2013-10-26 00:55:00,35.4,23.7,30.33,North,0,0.0,0.0,62,0.00,CLR,,0.00,WeatherDisplay:10.37,2013-10-26 04:55:00,
2013-10-26 01:00:00,35.4,23.7,30.33,North,0,0.0,0.0,62,0.00,CLR,,0.00,WeatherDisplay:10.37,2013-10-26 05:00:00,
2013-10-26 01:05:00,35.4,24.1,30.33,North,0,0.0,0.0,63,0.00,CLR,,0.00,WeatherDisplay:10.37,2013-10-26 05:05:00,
2013-10-26 01:10:00,35.4,24.1,30.33,North,0,0.0,0.0,63,0.00,CLR,,0.00,WeatherDisplay:10.37,2013-10-26 05:10:00,
2013-10-26 01:15:00,35.4,24.1,30.33,North,0,0.0,0.0,63,0.00,CLR,,0.00,WeatherDisplay:10.37,2013-10-26 05:15:00,
2013-10-26 01:20:00,35.4,24.4,30.33,North,0,0.0,0.0,64,0.00,CLR,,0.00,WeatherDisplay:10.37,2013-10-26 05:20:00,
2013-10-26 01:25:00,35.4,24.4,30.33,North,0,0.0,0.0,64,0.00,CLR,,0.00,WeatherDisplay:10.37,2013-10-26 05:25:00,
2013-10-26 01:30:00,35.4,24.4,30.33,North,0,0.0,0.0,64,0.00,CLR,,0.00,WeatherDisplay:10.37,2013-10-26 05:30:00,
2013-10-26 01:35:00,35.4,24.4,30.33,North,0,0.0,0.0,64,0.00,CLR,,0.00,WeatherDisplay:10.37,2013-10-26 05:35:00,
2013-10-26 01:40:00,35.4,24.8,30.33,North,0,0.0,0.0,65,0.00,CLR,,0.00,WeatherDisplay:10.37,2013-10-26 05:40:00,
2013-10-26 01:45:00,35.4,24.8,30.33,North,0,0.0,0.0,65,0.00,CLR,,0.00,WeatherDisplay:10.37,2013-10-26 05:45:00,
2013-10-26 01:50:00,35.4,24.8,30.33,North,0,0.0,0.0,65,0.00,CLR,,0.00,WeatherDisplay:10.37,2013-10-26 05:50:00,
2013-10-26 01:55:00,35.4,24.8,30.33,North,0,0.0,0.0,65,0.00,CLR,,0.00,WeatherDisplay:10.37,2013-10-26 05:55:00,
2013-10-26 02:00:00,35.2,24.6,30.33,North,0,0.0,0.0,65,0.00,CLR,,0.00,WeatherDisplay:10.37,2013-10-26 06:00:00,
2013-10-26 02:05:00,35.2,24.6,30.33,North,0,0.0,0.0,65,0.00,CLR,,0.00,WeatherDisplay:10.37,2013-10-26 06:05:00,
2013-10-26 02:10:00,35.2,24.6,30.33,North,0,0.0,0.0,65,0.00,CLR,,0.00,WeatherDisplay:10.37,2013-10-26 06:10:00,
2013-10-26 02:15:00,34.9,24.3,30.33,North,0,0.0,0.0,65,0.00,CLR,,0.00,WeatherDisplay:10.37,2013-10-26 06:15:00,
2013-10-26 02:20:00,34.7,24.1,30.33,North,0,0.0,0.0,65,0.00,CLR,,0.00,WeatherDisplay:10.37,2013-10-26 06:20:00,
2013-10-26 02:25:00,34.5,24.3,30.33,North,0,0.0,0.0,66,0.00,CLR,,0.00,WeatherDisplay:10.37,2013-10-26 06:25:00,
2013-10-26 02:30:00,34.3,24.2,30.33,North,0,0.0,0.0,66,0.00,CLR,,0.00,WeatherDisplay:10.37,2013-10-26 06:30:00,
2013-10-26 02:35:00,34.2,24.0,30.33,North,0,0.0,0.0,66,0.00,CLR,,0.00,WeatherDisplay:10.37,2013-10-26 06:35:00,
2013-10-26 02:40:00,33.8,23.6,30.33,North,0,0.0,0.0,66,0.00,CLR,,0.00,WeatherDisplay:10.37,2013-10-26 06:40:00,
2013-10-26 02:45:00,33.4,23.3,30.30,North,0,0.0,0.0,66,0.00,CLR,,0.00,WeatherDisplay:10.37,2013-10-26 06:45:00,
2013-10-26 02:50:00,33.3,23.1,30.30,North,0,0.0,0.0,66,0.00,CLR,,0.00,WeatherDisplay:10.37,2013-10-26 06:50:00,
2013-10-26 02:55:00,33.1,23.3,30.30,North,0,0.0,0.0,67,0.00,CLR,,0.00,WeatherDisplay:10.37,2013-10-26 06:55:00,
2013-10-26 03:00:00,32.7,23.0,30.30,North,0,0.0,0.0,67,0.00,CLR,,0.00,WeatherDisplay:10.37,2013-10-26 07:00:00,
2013-10-26 03:05:00,32.4,22.6,30.30,North,0,0.0,0.0,67,0.00,CLR,,0.00,WeatherDisplay:10.37,2013-10-26 07:05:00,
2013-10-26 03:10:00,32.2,22.4,30.30,North,0,0.0,0.0,67,0.00,CLR,,0.00,WeatherDisplay:10.37,2013-10-26 07:10:00,
2013-10-26 03:15:00,32.0,22.3,30.30,North,0,0.0,0.0,67,0.00,CLR,,0.00,WeatherDisplay:10.37,2013-10-26 07:15:00,
2013-10-26 03:20:00,31.8,22.5,30.30,North,0,0.0,0.0,68,0.00,CLR,,0.00,WeatherDisplay:10.37,2013-10-26 07:20:00,
2013-10-26 03:25:00,31.6,22.3,30.30,North,0,0.0,0.0,68,0.00,CLR,,0.00,WeatherDisplay:10.37,2013-10-26 07:25:00,
2013-10-26 03:30:00,31.5,22.1,30.30,North,0,0.0,0.0,68,0.00,CLR,,0.00,WeatherDisplay:10.37,2013-10-26 07:30:00,
2013-10-26 03:35:00,31.5,22.1,30.30,North,0,0.0,0.0,68,0.00,CLR,,0.00,WeatherDisplay:10.37,2013-10-26 07:35:00,
2013-10-26 03:40:00,31.3,22.3,30.30,North,0,0.0,0.0,69,0.00,CLR,,0.00,WeatherDisplay:10.37,2013-10-26 07:40:00,
2013-10-26 03:45:00,31.1,22.1,30.30,North,0,0.0,0.0,69,0.00,CLR,,0.00,WeatherDisplay:10.37,2013-10-26 07:45:00,
2013-10-26 03:50:00,31.1,22.5,30.30,North,0,0.0,0.0,70,0.00,CLR,,0.00,WeatherDisplay:10.37,2013-10-26 07:50:00,
2013-10-26 03:55:00,31.1,22.5,30.30,North,0,0.0,0.0,70,0.00,CLR,,0.00,WeatherDisplay:10.37,2013-10-26 07:55:00,
2013-10-26 04:00:00,31.1,22.5,30.30,North,0,0.0,0.0,70,0.00,CLR,,0.00,WeatherDisplay:10.37,2013-10-26 08:00:00,
2013-10-26 04:05:00,31.1,22.5,30.30,North,0,0.0,0.0,70,0.00,CLR,,0.00,WeatherDisplay:10.37,2013-10-26 08:05:00,
2013-10-26 04:10:00,30.9,22.6,30.30,North,2,0.0,0.0,71,0.00,CLR,,0.00,WeatherDisplay:10.37,2013-10-26 08:10:00,
2013-10-26 04:15:00,31.1,22.8,30.30,North,5,0.0,0.0,71,0.00,CLR,,0.00,WeatherDisplay:10.37,2013-10-26 08:15:00,
2013-10-26 04:20:00,31.1,22.8,30.30,North,6,0.0,0.0,71,0.00,CLR,,0.00,WeatherDisplay:10.37,2013-10-26 08:20:00,
2013-10-26 04:25:00,31.1,22.8,30.30,North,6,0.0,0.0,71,0.00,CLR,,0.00,WeatherDisplay:10.37,2013-10-26 08:25:00,
2013-10-26 04:30:00,30.9,23.0,30.30,North,6,0.0,0.0,72,0.00,CLR,,0.00,WeatherDisplay:10.37,2013-10-26 08:30:00,
2013-10-26 04:35:00,30.9,23.0,30.30,North,6,0.0,0.0,72,0.00,CLR,,0.00,WeatherDisplay:10.37,2013-10-26 08:35:00,
2013-10-26 04:40:00,30.9,23.0,30.30,North,6,0.0,0.0,72,0.00,CLR,,0.00,WeatherDisplay:10.37,2013-10-26 08:40:00,
2013-10-26 04:45:00,30.9,23.0,30.30,North,6,0.0,0.0,72,0.00,CLR,,0.00,WeatherDisplay:10.37,2013-10-26 08:45:00,
2013-10-26 04:50:00,30.9,23.0,30.30,North,6,0.0,0.0,72,0.00,CLR,,0.00,WeatherDisplay:10.37,2013-10-26 08:50:00,
2013-10-26 05:00:00,30.7,23.1,30.30,North,6,0.0,0.0,73,0.00,CLR,,0.00,WeatherDisplay:10.37,2013-10-26 09:00:00,
2013-10-26 05:05:00,30.7,23.1,30.30,North,6,0.0,0.0,73,0.00,CLR,,0.00,WeatherDisplay:10.37,2013-10-26 09:05:00,
2013-10-26 05:10:00,30.7,23.1,30.30,North,6,0.0,0.0,73,0.00,CLR,,0.00,WeatherDisplay:10.37,2013-10-26 09:10:00,
2013-10-26 05:15:00,30.7,23.1,30.30,North,6,0.0,0.0,73,0.00,CLR,,0.00,WeatherDisplay:10.37,2013-10-26 09:15:00,
2013-10-26 05:20:00,30.7,23.1,30.30,North,6,0.0,0.0,73,0.00,CLR,,0.00,WeatherDisplay:10.37,2013-10-26 09:20:00,
2013-10-26 05:25:00,30.7,23.4,30.30,North,6,0.0,0.0,74,0.00,CLR,,0.00,WeatherDisplay:10.37,2013-10-26 09:25:00,
2013-10-26 05:30:00,30.7,23.4,30.30,North,6,0.0,0.0,74,0.00,CLR,,0.00,WeatherDisplay:10.37,2013-10-26 09:30:00,
2013-10-26 05:40:00,30.6,23.3,30.30,North,6,0.0,0.0,74,0.00,CLR,,0.00,WeatherDisplay:10.37,2013-10-26 09:40:00,
2013-10-26 05:45:00,30.6,23.3,30.30,North,6,0.0,0.0,74,0.00,CLR,,0.00,WeatherDisplay:10.37,2013-10-26 09:45:00,
2013-10-26 05:50:00,30.4,23.1,30.30,North,6,0.0,0.0,74,0.00,CLR,,0.00,WeatherDisplay:10.37,2013-10-26 09:50:00,
2013-10-26 05:55:00,30.4,23.1,30.30,North,6,0.0,0.0,74,0.00,CLR,,0.00,WeatherDisplay:10.37,2013-10-26 09:55:00,
2013-10-26 06:00:00,30.4,23.4,30.30,North,6,0.0,0.0,75,0.00,CLR,,0.00,WeatherDisplay:10.37,2013-10-26 10:00:00,
2013-10-26 06:05:00,30.4,23.4,30.30,North,6,0.0,0.0,75,0.00,CLR,,0.00,WeatherDisplay:10.37,2013-10-26 10:05:00,
2013-10-26 06:10:00,30.3,23.3,30.30,North,6,0.0,0.0,75,0.00,CLR,,0.00,WeatherDisplay:10.37,2013-10-26 10:10:00,
2013-10-26 06:15:00,30.2,23.2,30.30,North,6,0.0,0.0,75,0.00,CLR,,0.00,WeatherDisplay:10.37,2013-10-26 10:15:00,
2013-10-26 06:20:00,30.2,23.2,30.30,North,6,0.0,0.0,75,0.00,CLR,,0.00,WeatherDisplay:10.37,2013-10-26 10:20:00,
2013-10-26 06:25:00,30.2,23.2,30.30,North,6,0.0,0.0,75,0.00,CLR,,0.00,WeatherDisplay:10.37,2013-10-26 10:25:00,
2013-10-26 06:30:00,30.0,23.1,30.30,North,6,0.0,0.0,75,0.00,CLR,,0.00,WeatherDisplay:10.37,2013-10-26 10:30:00,
2013-10-26 06:35:00,30.0,23.4,30.30,North,6,0.0,0.0,76,0.00,CLR,,0.00,WeatherDisplay:10.37,2013-10-26 10:35:00,
2013-10-26 06:40:00,30.0,23.4,30.30,North,6,0.0,0.0,76,0.00,CLR,,0.00,WeatherDisplay:10.37,2013-10-26 10:40:00,
2013-10-26 06:45:00,29.8,23.2,30.30,North,6,0.0,0.0,76,0.00,CLR,,0.00,WeatherDisplay:10.37,2013-10-26 10:45:00,
2013-10-26 06:50:00,29.8,23.2,30.30,North,6,0.0,0.0,76,0.00,CLR,,0.00,WeatherDisplay:10.37,2013-10-26 10:50:00,
2013-10-26 06:55:00,29.8,23.2,30.30,North,6,0.0,0.0,76,0.00,CLR,,0.00,WeatherDisplay:10.37,2013-10-26 10:55:00,
2013-10-26 07:00:00,29.7,23.0,30.30,North,6,0.0,0.0,76,0.00,CLR,,0.00,WeatherDisplay:10.37,2013-10-26 11:00:00,
2013-10-26 07:05:00,29.7,23.0,30.30,North,6,0.0,0.0,76,0.00,CLR,,0.00,WeatherDisplay:10.37,2013-10-26 11:05:00,
2013-10-26 07:10:00,29.7,23.3,30.30,North,6,0.0,0.0,77,0.00,CLR,,0.00,WeatherDisplay:10.37,2013-10-26 11:10:00,
2013-10-26 07:15:00,29.7,23.3,30.30,North,6,0.0,0.0,77,0.00,CLR,,0.00,WeatherDisplay:10.37,2013-10-26 11:15:00,
2013-10-26 07:20:00,29.7,23.3,30.30,North,6,0.0,0.0,77,0.00,CLR,,0.00,WeatherDisplay:10.37,2013-10-26 11:20:00,
2013-10-26 07:25:00,29.5,23.2,30.30,North,6,0.0,0.0,77,0.00,CLR,,0.00,WeatherDisplay:10.37,2013-10-26 11:25:00,
2013-10-26 07:30:00,29.5,23.2,30.30,North,6,0.0,0.0,77,0.00,CLR,,0.00,WeatherDisplay:10.37,2013-10-26 11:30:00,
2013-10-26 07:35:00,29.5,23.2,30.30,North,6,0.0,0.0,77,0.00,CLR,,0.00,WeatherDisplay:10.37,2013-10-26 11:35:00,
2013-10-26 07:40:00,29.5,23.2,30.30,North,6,0.0,0.0,77,0.00,CLR,,0.00,WeatherDisplay:10.37,2013-10-26 11:40:00,
2013-10-26 07:45:00,29.5,23.5,30.30,North,6,0.0,0.0,78,0.00,CLR,,0.00,WeatherDisplay:10.37,2013-10-26 11:45:00,
2013-10-26 07:50:00,29.5,23.5,30.30,North,6,0.0,0.0,78,0.00,CLR,,0.00,WeatherDisplay:10.37,2013-10-26 11:50:00,
2013-10-26 07:55:00,29.5,23.5,30.30,North,6,0.0,0.0,78,0.00,CLR,,0.00,WeatherDisplay:10.37,2013-10-26 11:55:00,
2013-10-26 08:00:00,29.5,23.5,30.30,North,6,0.0,0.0,78,0.00,CLR,,0.00,WeatherDisplay:10.37,2013-10-26 12:00:00,
2013-10-26 08:05:00,29.5,23.5,30.30,North,6,0.0,0.0,78,0.00,CLR,,0.00,WeatherDisplay:10.37,2013-10-26 12:05:00,
2013-10-26 08:10:00,29.5,23.8,30.30,North,6,0.0,0.0,79,0.00,CLR,,0.00,WeatherDisplay:10.37,2013-10-26 12:10:00,
2013-10-26 08:15:00,29.7,23.9,30.30,North,6,0.0,0.0,79,0.00,CLR,,0.00,WeatherDisplay:10.37,2013-10-26 12:15:00,
2013-10-26 08:20:00,29.7,23.9,30.30,North,6,0.0,0.0,79,0.00,CLR,,0.00,WeatherDisplay:10.37,2013-10-26 12:20:00,
2013-10-26 08:30:00,30.0,24.3,30.30,North,6,0.0,0.0,79,0.00,CLR,,0.00,WeatherDisplay:10.37,2013-10-26 12:30:00,
2013-10-26 08:35:00,30.2,24.8,30.30,North,6,0.0,0.0,80,0.00,CLR,,0.00,WeatherDisplay:10.37,2013-10-26 12:35:00,
2013-10-26 08:40:00,30.4,24.9,30.30,North,6,0.0,0.0,80,0.00,CLR,,0.00,WeatherDisplay:10.37,2013-10-26 12:40:00,
2013-10-26 08:45:00,30.6,25.2,30.30,North,6,0.0,0.0,80,0.00,CLR,,0.00,WeatherDisplay:10.37,2013-10-26 12:45:00,
2013-10-26 08:50:00,31.0,25.8,30.30,North,6,0.0,0.0,81,0.00,CLR,,0.00,WeatherDisplay:10.37,2013-10-26 12:50:00,
2013-10-26 08:55:00,31.3,26.1,30.30,North,6,0.0,0.0,81,0.00,CLR,,0.00,WeatherDisplay:10.37,2013-10-26 12:55:00,
2013-10-26 09:00:00,31.6,26.5,30.30,North,6,0.0,0.0,81,0.00,CLR,,0.00,WeatherDisplay:10.37,2013-10-26 13:00:00,
2013-10-26 09:05:00,32.1,26.9,30.30,North,6,0.0,0.0,81,0.00,CLR,,0.00,WeatherDisplay:10.37,2013-10-26 13:05:00,
2013-10-26 09:10:00,32.7,27.8,30.30,North,6,0.0,0.0,82,0.00,CLR,,0.00,WeatherDisplay:10.37,2013-10-26 13:10:00,
2013-10-26 09:15:00,33.3,28.7,30.30,North,6,0.0,0.0,83,0.00,CLR,,0.00,WeatherDisplay:10.37,2013-10-26 13:15:00,
2013-10-26 09:20:00,33.6,29.0,30.30,North,6,0.0,0.0,83,0.00,CLR,,0.00,WeatherDisplay:10.37,2013-10-26 13:20:00,
2013-10-26 09:30:00,34.9,30.5,30.30,East,93,0.0,0.0,84,0.00,CLR,,0.00,WeatherDisplay:10.37,2013-10-26 13:30:00,
2013-10-26 09:40:00,36.2,32.1,30.30,East,86,0.0,0.0,85,0.00,CLR,,0.00,WeatherDisplay:10.37,2013-10-26 13:40:00,
2013-10-26 09:45:00,37.0,32.9,30.30,ESE,102,0.0,0.0,85,0.00,CLR,,0.00,WeatherDisplay:10.37,2013-10-26 13:45:00,
2013-10-26 09:50:00,38.2,34.4,30.30,ESE,102,0.0,0.0,86,0.00,CLR,,0.00,WeatherDisplay:10.37,2013-10-26 13:50:00,
2013-10-26 10:00:00,40.0,35.6,30.30,ESE,102,0.0,0.0,84,0.00,CLR,,0.00,WeatherDisplay:10.37,2013-10-26 14:00:00,
2013-10-26 10:05:00,40.8,36.0,30.30,East,85,0.0,0.0,83,0.00,CLR,,0.00,WeatherDisplay:10.37,2013-10-26 14:05:00,
2013-10-26 10:10:00,41.3,35.9,30.30,ENE,74,0.0,0.0,81,0.00,CLR,,0.00,WeatherDisplay:10.37,2013-10-26 14:10:00,
2013-10-26 10:20:00,42.3,36.0,30.30,ENE,73,0.0,5.0,78,0.00,CLR,,0.00,WeatherDisplay:10.37,2013-10-26 14:20:00,
2013-10-26 10:25:00,43.0,35.9,30.30,ENE,78,0.0,5.0,76,0.00,CLR,,0.00,WeatherDisplay:10.37,2013-10-26 14:25:00,
2013-10-26 10:30:00,43.6,35.2,30.30,East,99,0.0,3.0,72,0.00,CLR,,0.00,WeatherDisplay:10.37,2013-10-26 14:30:00,
2013-10-26 10:35:00,44.1,34.9,30.30,ESE,117,0.0,5.0,70,0.00,CLR,,0.00,WeatherDisplay:10.37,2013-10-26 14:35:00,
2013-10-26 10:40:00,44.6,34.7,30.30,ESE,104,0.0,5.0,68,0.00,CLR,,0.00,WeatherDisplay:10.37,2013-10-26 14:40:00,
2013-10-26 10:45:00,45.1,34.5,30.30,ESE,104,0.0,0.0,66,0.00,CLR,,0.00,WeatherDisplay:10.37,2013-10-26 14:45:00,
2013-10-26 10:50:00,45.5,34.0,30.30,SW,219,0.0,0.0,64,0.00,CLR,,0.00,WeatherDisplay:10.37,2013-10-26 14:50:00,
2013-10-26 10:55:00,46.0,34.5,30.30,SSW,211,0.0,0.0,64,0.00,CLR,,0.00,WeatherDisplay:10.37,2013-10-26 14:55:00,
2013-10-26 11:00:00,46.4,34.5,30.30,SW,221,0.0,0.0,63,0.00,CLR,,0.00,WeatherDisplay:10.37,2013-10-26 15:00:00,
2013-10-26 11:05:00,47.1,34.3,30.30,West,263,0.0,0.0,61,0.00,CLR,,0.00,WeatherDisplay:10.37,2013-10-26 15:05:00,
2013-10-26 11:10:00,47.7,34.4,30.30,WNW,290,1.0,5.0,60,0.00,CLR,,0.00,WeatherDisplay:10.37,2013-10-26 15:10:00,
2013-10-26 11:20:00,48.4,33.4,30.27,SSE,165,0.0,0.0,56,0.00,CLR,,0.00,WeatherDisplay:10.37,2013-10-26 15:20:00,
2013-10-26 11:25:00,48.9,33.4,30.27,WSW,258,0.0,0.0,55,0.00,CLR,,0.00,WeatherDisplay:10.37,2013-10-26 15:25:00,
2013-10-26 11:30:00,49.2,33.3,30.27,SE,143,0.0,0.0,54,0.00,CLR,,0.00,WeatherDisplay:10.37,2013-10-26 15:30:00,
2013-10-26 11:35:00,49.6,33.2,30.27,SW,225,0.0,6.0,53,0.00,CLR,,0.00,WeatherDisplay:10.37,2013-10-26 15:35:00,
2013-10-26 11:40:00,50.0,33.0,30.27,WSW,249,0.0,3.0,52,0.00,CLR,,0.00,WeatherDisplay:10.37,2013-10-26 15:40:00,
2013-10-26 11:45:00,50.4,33.4,30.27,SSW,201,0.0,5.0,52,0.00,CLR,,0.00,WeatherDisplay:10.37,2013-10-26 15:45:00,
2013-10-26 11:50:00,51.1,33.1,30.27,South,190,0.0,5.0,50,0.00,CLR,,0.00,WeatherDisplay:10.37,2013-10-26 15:50:00,
2013-10-26 11:55:00,51.7,32.1,30.27,South,171,0.0,5.0,47,0.00,CLR,,0.00,WeatherDisplay:10.37,2013-10-26 15:55:00,
2013-10-26 12:00:00,52.3,32.7,30.27,SE,140,0.0,3.0,47,0.00,CLR,,0.00,WeatherDisplay:10.37,2013-10-26 16:00:00,
2013-10-26 12:05:00,52.7,31.9,30.27,ESE,105,0.0,0.0,45,0.00,CLR,,0.00,WeatherDisplay:10.37,2013-10-26 16:05:00,
2013-10-26 12:10:00,53.2,32.4,30.27,SSW,195,0.0,0.0,45,0.00,CLR,,0.00,WeatherDisplay:10.37,2013-10-26 16:10:00,
2013-10-26 12:15:00,54.2,33.3,30.27,SW,233,0.0,4.0,45,0.00,CLR,,0.00,WeatherDisplay:10.37,2013-10-26 16:15:00,
2013-10-26 12:20:00,55.3,33.2,30.27,SSW,192,0.0,0.0,43,0.00,CLR,,0.00,WeatherDisplay:10.37,2013-10-26 16:20:00,
2013-10-26 12:30:00,56.8,33.9,30.27,West,277,0.0,6.0,42,0.00,CLR,,0.00,WeatherDisplay:10.37,2013-10-26 16:30:00,
2013-10-26 12:40:00,57.2,33.7,30.27,SW,227,0.0,5.0,41,0.00,CLR,,0.00,WeatherDisplay:10.37,2013-10-26 16:40:00,
2013-10-26 12:45:00,56.8,32.7,30.24,South,181,0.0,7.0,40,0.00,CLR,,0.00,WeatherDisplay:10.37,2013-10-26 16:45:00,
2013-10-26 12:50:00,56.3,32.3,30.24,WSW,256,2.0,7.0,40,0.00,CLR,,0.00,WeatherDisplay:10.37,2013-10-26 16:50:00,
2013-10-26 12:55:00,56.5,32.4,30.24,SW,215,0.0,8.0,40,0.00,CLR,,0.00,WeatherDisplay:10.37,2013-10-26 16:55:00,
2013-10-26 13:00:00,56.7,32.6,30.24,SSW,208,0.0,0.0,40,0.00,CLR,,0.00,WeatherDisplay:10.37,2013-10-26 17:00:00,
2013-10-26 13:05:00,56.9,33.4,30.24,SW,221,0.0,5.0,41,0.00,CLR,,0.00,WeatherDisplay:10.37,2013-10-26 17:05:00,
2013-10-26 13:10:00,57.4,33.2,30.24,SSE,149,0.0,6.0,40,0.00,CLR,,0.00,WeatherDisplay:10.37,2013-10-26 17:10:00,
2013-10-26 13:20:00,58.3,34.0,30.24,SW,215,1.0,5.0,40,0.00,CLR,,0.00,WeatherDisplay:10.37,2013-10-26 17:20:00,
2013-10-26 13:25:00,58.3,34.0,30.24,SSW,203,1.0,5.0,40,0.00,CLR,,0.00,WeatherDisplay:10.37,2013-10-26 17:25:00,
2013-10-26 13:30:00,58.1,33.9,30.21,WNW,286,0.0,5.0,40,0.00,CLR,,0.00,WeatherDisplay:10.37,2013-10-26 17:30:00,
2013-10-26 13:35:00,58.1,33.2,30.21,WNW,289,0.0,7.0,39,0.00,CLR,,0.00,WeatherDisplay:10.37,2013-10-26 17:35:00,
2013-10-26 13:40:00,58.3,34.0,30.21,WNW,292,0.0,5.0,40,0.00,CLR,,0.00,WeatherDisplay:10.37,2013-10-26 17:40:00,
2013-10-26 13:45:00,58.3,33.4,30.21,WNW,290,0.0,5.0,39,0.00,CLR,,0.00,WeatherDisplay:10.37,2013-10-26 17:45:00,
2013-10-26 13:50:00,58.5,34.2,30.21,West,272,0.0,5.0,40,0.00,CLR,,0.00,WeatherDisplay:10.37,2013-10-26 17:50:00,
2013-10-26 13:55:00,58.6,33.7,30.21,WNW,300,1.0,8.0,39,0.00,CLR,,0.00,WeatherDisplay:10.37,2013-10-26 17:55:00,
2013-10-26 14:00:00,58.8,34.5,30.21,SW,216,1.0,5.0,40,0.00,CLR,,0.00,WeatherDisplay:10.37,2013-10-26 18:00:00,
2013-10-26 14:05:00,58.5,33.6,30.21,South,174,0.0,4.0,39,0.00,CLR,,0.00,WeatherDisplay:10.37,2013-10-26 18:05:00,
2013-10-26 14:10:00,58.3,33.4,30.21,SSW,204,1.0,7.0,39,0.00,CLR,,0.00,WeatherDisplay:10.37,2013-10-26 18:10:00,
2013-10-26 14:15:00,58.3,33.4,30.18,SW,232,0.0,5.0,39,0.00,CLR,,0.00,WeatherDisplay:10.37,2013-10-26 18:15:00,
2013-10-26 14:20:00,58.1,32.6,30.18,SSW,195,0.0,5.0,38,0.00,CLR,,0.00,WeatherDisplay:10.37,2013-10-26 18:20:00,
2013-10-26 14:25:00,58.3,32.1,30.18,SSE,167,0.0,0.0,37,0.00,CLR,,0.00,WeatherDisplay:10.37,2013-10-26 18:25:00,
2013-10-26 14:30:00,58.5,32.3,30.18,WSW,243,3.0,8.0,37,0.00,CLR,,0.00,WeatherDisplay:10.37,2013-10-26 18:30:00,
2013-10-26 14:35:00,58.5,32.9,30.18,West,279,1.0,7.0,38,0.00,CLR,,0.00,WeatherDisplay:10.37,2013-10-26 18:35:00,
2013-10-26 14:40:00,58.5,32.3,30.18,WSW,252,0.0,0.0,37,0.00,CLR,,0.00,WeatherDisplay:10.37,2013-10-26 18:40:00,
2013-10-26 14:45:00,58.5,32.3,30.18,WNW,288,0.0,6.0,37,0.00,CLR,,0.00,WeatherDisplay:10.37,2013-10-26 18:45:00,
2013-10-26 14:50:00,58.5,32.3,30.18,WNW,292,1.0,6.0,37,0.00,CLR,,0.00,WeatherDisplay:10.37,2013-10-26 18:50:00,
2013-10-26 14:55:00,58.3,32.1,30.18,SSW,195,2.0,9.0,37,0.00,CLR,,0.00,WeatherDisplay:10.37,2013-10-26 18:55:00,
2013-10-26 15:00:00,58.3,32.1,30.15,SW,225,1.0,7.0,37,0.00,CLR,,0.00,WeatherDisplay:10.37,2013-10-26 19:00:00,
2013-10-26 15:05:00,58.1,31.9,30.15,West,270,1.0,5.0,37,0.00,CLR,,0.00,WeatherDisplay:10.37,2013-10-26 19:05:00,
2013-10-26 15:10:00,58.1,31.9,30.15,South,180,3.0,6.0,37,0.00,CLR,,0.00,WeatherDisplay:10.37,2013-10-26 19:10:00,
2013-10-26 15:50:00,58.3,32.1,30.15,NW,313,1.0,7.0,37,0.00,CLR,,0.00,WeatherDisplay:10.37,2013-10-26 19:50:00,
2013-10-26 15:55:00,58.3,32.1,30.15,West,264,0.0,7.0,37,0.00,CLR,,0.00,WeatherDisplay:10.37,2013-10-26 19:55:00,
2013-10-26 16:00:00,58.3,32.1,30.12,WSW,238,0.0,3.0,37,0.00,CLR,,0.00,WeatherDisplay:10.37,2013-10-26 20:00:00,
2013-10-26 16:05:00,58.1,31.9,30.12,South,171,0.0,3.0,37,0.00,CLR,,0.00,WeatherDisplay:10.37,2013-10-26 20:05:00,
2013-10-26 16:10:00,58.1,31.3,30.12,South,172,0.0,3.0,36,0.00,CLR,,0.00,WeatherDisplay:10.37,2013-10-26 20:10:00,
2013-10-26 16:20:00,58.0,31.8,30.12,NNE,25,0.0,0.0,37,0.00,CLR,,0.00,WeatherDisplay:10.37,2013-10-26 20:20:00,
2013-10-26 16:30:00,57.9,31.8,30.12,SE,146,1.0,5.0,37,0.00,CLR,,0.00,WeatherDisplay:10.37,2013-10-26 20:30:00,
2013-10-26 16:35:00,57.9,31.8,30.12,SSE,165,0.0,0.0,37,0.00,CLR,,0.00,WeatherDisplay:10.37,2013-10-26 20:35:00,
2013-10-26 16:40:00,57.8,31.7,30.12,SSE,166,0.0,4.0,37,0.00,CLR,,0.00,WeatherDisplay:10.37,2013-10-26 20:40:00,
2013-10-26 16:45:00,57.7,30.2,30.12,South,172,1.0,6.0,35,0.00,CLR,,0.00,WeatherDisplay:10.37,2013-10-26 20:45:00,
2013-10-26 16:50:00,57.7,30.2,30.12,South,187,0.0,8.0,35,0.00,CLR,,0.00,WeatherDisplay:10.37,2013-10-26 20:50:00,
2013-10-26 16:55:00,57.6,30.1,30.12,South,189,0.0,6.0,35,0.00,CLR,,0.00,WeatherDisplay:10.37,2013-10-26 20:55:00,
2013-10-26 17:00:00,57.6,31.5,30.12,SSW,196,0.0,5.0,37,0.00,CLR,,0.00,WeatherDisplay:10.37,2013-10-26 21:00:00,
2013-10-26 17:05:00,57.4,31.3,30.12,WSW,246,0.0,5.0,37,0.00,CLR,,0.00,WeatherDisplay:10.37,2013-10-26 21:05:00,
2013-10-26 17:10:00,57.2,31.1,30.12,SW,235,0.0,0.0,37,0.00,CLR,,0.00,WeatherDisplay:10.37,2013-10-26 21:10:00,
2013-10-26 18:05:00,55.7,32.3,30.12,SSW,199,0.0,0.0,41,0.00,CLR,,0.00,WeatherDisplay:10.37,2013-10-26 22:05:00,
2013-10-26 18:10:00,55.4,32.1,30.12,West,265,0.0,0.0,41,0.00,CLR,,0.00,WeatherDisplay:10.37,2013-10-26 22:10:00,
2013-10-26 18:15:00,55.2,31.9,30.12,West,277,0.0,0.0,41,0.00,CLR,,0.00,WeatherDisplay:10.37,2013-10-26 22:15:00,
2013-10-26 18:20:00,54.9,31.7,30.12,West,277,0.0,0.0,41,0.00,CLR,,0.00,WeatherDisplay:10.37,2013-10-26 22:20:00,
2013-10-26 18:25:00,54.6,31.3,30.12,West,278,0.0,0.0,41,0.00,CLR,,0.00,WeatherDisplay:10.37,2013-10-26 22:25:00,
2013-10-26 18:30:00,54.3,31.1,30.12,West,278,0.0,0.0,41,0.00,CLR,,0.00,WeatherDisplay:10.37,2013-10-26 22:30:00,
2013-10-26 18:35:00,53.9,30.7,30.12,West,278,0.0,0.0,41,0.00,CLR,,0.00,WeatherDisplay:10.37,2013-10-26 22:35:00,
2013-10-26 18:40:00,53.4,30.9,30.12,West,278,0.0,0.0,42,0.00,CLR,,0.00,WeatherDisplay:10.37,2013-10-26 22:40:00,
2013-10-26 18:45:00,53.1,30.6,30.12,West,277,0.0,0.0,42,0.00,CLR,,0.00,WeatherDisplay:10.37,2013-10-26 22:45:00,
2013-10-26 18:50:00,52.7,30.2,30.12,West,277,0.0,0.0,42,0.00,CLR,,0.00,WeatherDisplay:10.37,2013-10-26 22:50:00,
2013-10-26 19:00:00,52.0,29.6,30.12,West,278,0.0,0.0,42,0.00,CLR,,0.00,WeatherDisplay:10.37,2013-10-26 23:00:00,
2013-10-26 19:05:00,51.6,29.8,30.12,West,278,0.0,0.0,43,0.00,CLR,,0.00,WeatherDisplay:10.37,2013-10-26 23:05:00,
2013-10-26 19:10:00,51.3,29.5,30.12,West,277,0.0,0.0,43,0.00,CLR,,0.00,WeatherDisplay:10.37,2013-10-26 23:10:00,
2013-10-26 19:15:00,50.9,29.7,30.09,West,278,0.0,0.0,44,0.00,CLR,,0.00,WeatherDisplay:10.37,2013-10-26 23:15:00,
2013-10-26 19:20:00,50.5,29.4,30.09,West,278,0.0,0.0,44,0.00,CLR,,0.00,WeatherDisplay:10.37,2013-10-26 23:20:00,
2013-10-26 19:25:00,50.2,29.6,30.09,West,277,0.0,0.0,45,0.00,CLR,,0.00,WeatherDisplay:10.37,2013-10-26 23:25:00,
2013-10-26 19:30:00,49.8,29.3,30.09,West,277,0.0,0.0,45,0.00,CLR,,0.00,WeatherDisplay:10.37,2013-10-26 23:30:00,
2013-10-26 19:35:00,49.6,29.7,30.09,West,277,0.0,0.0,46,0.00,CLR,,0.00,WeatherDisplay:10.37,2013-10-26 23:35:00,
2013-10-26 19:40:00,49.5,29.5,30.09,West,277,0.0,0.0,46,0.00,CLR,,0.00,WeatherDisplay:10.37,2013-10-26 23:40:00,
2013-10-26 19:45:00,49.2,29.8,30.09,West,277,0.0,0.0,47,0.00,CLR,,0.00,WeatherDisplay:10.37,2013-10-26 23:45:00,
2013-10-26 19:50:00,48.9,30.1,30.09,West,277,0.0,0.0,48,0.00,CLR,,0.00,WeatherDisplay:10.37,2013-10-26 23:50:00,
2013-10-26 19:55:00,48.4,30.1,30.09,West,277,0.0,0.0,49,0.00,CLR,,0.00,WeatherDisplay:10.37,2013-10-26 23:55:00,
2013-10-26 20:00:00,48.1,29.8,30.09,West,277,0.0,0.0,49,0.00,CLR,,0.00,WeatherDisplay:10.37,2013-10-27 00:00:00,
2013-10-26 20:05:00,47.8,30.1,30.09,West,277,0.0,0.0,50,0.00,CLR,,0.00,WeatherDisplay:10.37,2013-10-27 00:05:00,
2013-10-26 20:10:00,47.7,30.9,30.09,West,277,0.0,0.0,52,0.00,CLR,,0.00,WeatherDisplay:10.37,2013-10-27 00:10:00,
2013-10-26 20:15:00,47.4,30.7,30.09,West,277,0.0,0.0,52,0.00,CLR,,0.00,WeatherDisplay:10.37,2013-10-27 00:15:00,
2013-10-26 20:20:00,47.1,30.9,30.09,West,277,0.0,0.0,53,0.00,CLR,,0.00,WeatherDisplay:10.37,2013-10-27 00:20:00,
2013-10-26 20:30:00,46.8,30.5,30.09,West,277,0.0,0.0,53,0.00,CLR,,0.00,WeatherDisplay:10.37,2013-10-27 00:30:00,
2013-10-26 20:35:00,46.6,30.4,30.09,West,277,0.0,0.0,53,0.00,CLR,,0.00,WeatherDisplay:10.37,2013-10-27 00:35:00,
2013-10-26 20:40:00,46.3,30.0,30.09,West,277,0.0,0.0,53,0.00,CLR,,0.00,WeatherDisplay:10.37,2013-10-27 00:40:00,
2013-10-26 20:45:00,46.1,30.3,30.09,West,277,0.0,0.0,54,0.00,CLR,,0.00,WeatherDisplay:10.37,2013-10-27 00:45:00,
2013-10-26 20:50:00,45.9,30.1,30.09,West,277,0.0,0.0,54,0.00,CLR,,0.00,WeatherDisplay:10.37,2013-10-27 00:50:00,
2013-10-26 21:00:00,45.5,29.8,30.09,West,277,0.0,0.0,54,0.00,CLR,,0.00,WeatherDisplay:10.37,2013-10-27 01:00:00,
2013-10-26 21:05:00,45.2,30.0,30.09,West,277,0.0,0.0,55,0.00,CLR,,0.00,WeatherDisplay:10.37,2013-10-27 01:05:00,
2013-10-26 21:10:00,45.0,29.8,30.09,West,277,0.0,0.0,55,0.00,CLR,,0.00,WeatherDisplay:10.37,2013-10-27 01:10:00,
2013-10-26 21:15:00,45.0,29.8,30.09,West,277,0.0,0.0,55,0.00,CLR,,0.00,WeatherDisplay:10.37,2013-10-27 01:15:00,
2013-10-26 21:20:00,44.8,30.0,30.09,West,277,0.0,0.0,56,0.00,CLR,,0.00,WeatherDisplay:10.37,2013-10-27 01:20:00,
2013-10-26 21:25:00,44.8,30.0,30.09,West,277,0.0,0.0,56,0.00,CLR,,0.00,WeatherDisplay:10.37,2013-10-27 01:25:00,
2013-10-26 21:30:00,44.8,30.0,30.09,West,277,0.0,0.0,56,0.00,CLR,,0.00,WeatherDisplay:10.37,2013-10-27 01:30:00,
2013-10-26 21:35:00,44.8,30.5,30.09,West,277,0.0,0.0,57,0.00,CLR,,0.00,WeatherDisplay:10.37,2013-10-27 01:35:00,
2013-10-26 21:40:00,44.8,30.5,30.09,West,277,0.0,0.0,57,0.00,CLR,,0.00,WeatherDisplay:10.37,2013-10-27 01:40:00,
2013-10-26 21:50:00,45.0,31.1,30.09,West,277,0.0,0.0,58,0.00,CLR,,0.00,WeatherDisplay:10.37,2013-10-27 01:50:00,
2013-10-26 21:55:00,45.1,31.2,30.09,West,277,0.0,0.0,58,0.00,CLR,,0.00,WeatherDisplay:10.37,2013-10-27 01:55:00,
2013-10-26 22:00:00,45.1,31.7,30.09,West,278,0.0,0.0,59,0.00,CLR,,0.00,WeatherDisplay:10.37,2013-10-27 02:00:00,
2013-10-26 22:05:00,45.1,31.7,30.09,West,277,0.0,0.0,59,0.00,CLR,,0.00,WeatherDisplay:10.37,2013-10-27 02:05:00,
2013-10-26 22:10:00,45.1,32.1,30.09,West,277,0.0,0.0,60,0.00,CLR,,0.00,WeatherDisplay:10.37,2013-10-27 02:10:00,
2013-10-26 22:15:00,45.1,32.1,30.09,West,277,0.0,0.0,60,0.00,CLR,,0.00,WeatherDisplay:10.37,2013-10-27 02:15:00,
2013-10-26 22:20:00,45.3,32.7,30.09,West,277,0.0,0.0,61,0.00,CLR,,0.00,WeatherDisplay:10.37,2013-10-27 02:20:00,
2013-10-26 22:25:00,45.5,32.8,30.09,WNW,286,0.0,0.0,61,0.00,CLR,,0.00,WeatherDisplay:10.37,2013-10-27 02:25:00,
2013-10-26 22:30:00,45.7,33.0,30.09,NW,315,0.0,0.0,61,0.00,CLR,,0.00,WeatherDisplay:10.37,2013-10-27 02:30:00,
2013-10-26 22:35:00,45.7,33.0,30.09,WNW,301,0.0,0.0,61,0.00,CLR,,0.00,WeatherDisplay:10.37,2013-10-27 02:35:00,
2013-10-26 22:40:00,45.9,32.7,30.09,West,269,0.0,0.0,60,0.00,CLR,,0.00,WeatherDisplay:10.37,2013-10-27 02:40:00,
2013-10-26 22:45:00,46.0,32.9,30.09,West,268,0.0,0.0,60,0.00,CLR,,0.00,WeatherDisplay:10.37,2013-10-27 02:45:00,
2013-10-26 22:50:00,46.2,33.1,30.09,West,268,0.0,0.0,60,0.00,CLR,,0.00,WeatherDisplay:10.37,2013-10-27 02:50:00,
2013-10-26 22:55:00,46.3,32.7,30.09,West,268,0.0,0.0,59,0.00,CLR,,0.00,WeatherDisplay:10.37,2013-10-27 02:55:00,
2013-10-26 23:05:00,46.6,33.0,30.09,WSW,240,0.0,0.0,59,0.00,CLR,,0.00,WeatherDisplay:10.37,2013-10-27 03:05:00,
2013-10-26 23:10:00,46.6,33.0,30.09,SSE,153,0.0,0.0,59,0.00,CLR,,0.00,WeatherDisplay:10.37,2013-10-27 03:10:00,
2013-10-26 23:20:00,46.8,33.6,30.09,SE,139,0.0,0.0,60,0.00,CLR,,0.00,WeatherDisplay:10.37,2013-10-27 03:20:00,
2013-10-26 23:25:00,46.8,33.6,30.09,SE,139,0.0,0.0,60,0.00,CLR,,0.00,WeatherDisplay:10.37,2013-10-27 03:25:00,
2013-10-26 23:30:00,46.8,33.6,30.09,NE,40,0.0,0.0,60,0.00,CLR,,0.00,WeatherDisplay:10.37,2013-10-27 03:30:00,
2013-10-26 23:40:00,47.1,33.9,30.09,North,357,0.0,0.0,60,0.00,CLR,,0.00,WeatherDisplay:10.37,2013-10-27 03:40:00,
2013-10-26 23:45:00,47.1,33.9,30.09,North,9,0.0,0.0,60,0.00,CLR,,0.00,WeatherDisplay:10.37,2013-10-27 03:45:00,
2013-10-26 23:50:00,47.3,33.7,30.09,NNE,25,0.0,0.0,59,0.00,CLR,,0.00,WeatherDisplay:10.37,2013-10-27 03:50:00,